Tracking 35274 objects as of 10-Sep-2026
HD Live streaming from Space Station
objects crossing your sky now

THOR ABLESTAR DEB


THOR ABLESTAR DEB is no longer on orbit


NORAD ID: 143
Int'l Code: 1961-015AD
Launch date: June 29, 1961
Source: United States (US)
Launch site: AIR FORCE EASTERN TEST RANGE (AFETR)
Decay date: 1962-06-16

Note: This is SATELLITE DEBRIS
Your satellite tracking list
Your tracking list is empty




NASA's NSSDC Master Catalog

Two Line Element Set (TLE):
1 00143U 61015 AD 62164.79996379  .01714948 +00000-0 +00000-0 0  9993
2 00143 066.2402 112.5975 0041368 055.8253 356.3771 16.02917191052905
Source of the keplerian elements: AFSPC